Weather in Chekmagush

Russia / Republic of Bashkortostan     55°08′23″N   54°39′06″E
temp.,
°C
wind,
m/s
gust,
m/s
humid.,
%
clouds,
%
prec.,
mm/h
press.,
hPa
HPBL,
m
1 march, mon
mon123:00−15nw589796 0.1 1009189
02:00−15nw4696100 0.1 1011190
05:00−16nw4797100 0.1 1013172
08:00−17nw469796 0.1 1014157
11:00−16nw469693 0.3 1016232
14:00−15nw359598 0.1 1017269
17:00−15nw469499 0.1 1018325
20:00−19w339876 0.0 101832
2 march, tue
tue223:00−20wsw339839 0.0 101935
02:00−22sw34971 0.0 101771
05:00−22ssw479610 0.0 1015113
08:00−18s61094100 0.0 1012261
11:00−13ssw71295100 0.4 1010403
14:00−11ssw71394100 1.1 1005553
17:00−8ssw71393100 1.9 1003594
20:00−7ssw71494100 0.9 1001558
3 march, wed
wed323:00−4ssw71493100 1.6 999560
02:00−4sw51195100 0.1 997266
05:00−4w5129493 0.2 997383
08:00−6wsw5119473 0.0 997326
11:00−6wsw6119283 0.1 999474
14:00−4w699297 0.1 999521
17:00−4w699197 0.1 1000652
20:00−5w51094100 0.1 1000468
4 march, thu
thu423:00−7w6119394 0.3 1002373
02:00−8wnw5109599 0.3 1002307
05:00−12w499695 0.3 1003164
08:00−12w5109670 0.0 1004232
11:00−10wsw599379 0.1 1005304
14:00−7sw6109089 0.0 1004519
17:00−6sw6108992 0.0 1003544
20:00−7ssw71492100 0.1 1001597
5 march, fri
fri523:00−5ssw91790100 0.6 999798
02:00−3sw91694100 0.5 995901
05:00−1sw111894100 1.4 9931103
08:00−1wsw111892100 0.7 9921041
11:00−3w101776100 1.8 9951152
14:00−7w10158633 0.0 1001899
17:00−7w8138667 0.1 1006757
20:00−10w5129156 0.0 1010277